Regional Weather Roundup
Issued by NWS

Home | Current Version | Previous Version | Text Only | Print | Product List | Glossary On
Versions: 1 2 3 4 5 6 7 8 9 10 11 12 13 14 15 16 17 18 19 20 21 22 23 24 25 26 27 28 29 30 31 32 33 34 35 36 37 38 39 40 41 42 43 44 45 46 47 48 49 50
000
ASUS46 KLOX 310412
RWRCA

SOUTHERN CALIFORNIA WEATHER ROUNDUP
NATIONAL WEATHER SERVICE OXNARD CALIFORNIA
900 PM PDT WED JUL 30 2014

NOTE: "FAIR" INDICATES FEW OR NO CLOUDS BELOW 12,000 FEET WITH NO
SIGNIFICANT WEATHER AND/OR OBSTRUCTIONS TO VISIBILITY.

  -  STATIONS PRECEEDED BY AN ASTERISK (*) ARE NOT NWS OR FAA
     STATIONS AND ARE NOT SUBJECT TO NWS AND FAA QUALITY CONTROL.

CAZ041-042-087-310500-
LA AND ORANGE COUNTY COASTAL AREAS


CITY           SKY/WX    TMP DP  RH WIND       PRES   REMARKS
L.A. DOWNTOWN  CLEAR     71  61  70 CALM      29.91R
L.A. AIRPORT   PTCLDY    69  63  81 W5        29.92R
LONG BEACH     CLEAR     73  62  68 NW3       29.91R

CITY           SKY/WX    TMP DP  RH WIND       PRES   REMARKS
AVALON           N/A     70 N/A N/A S1          N/A
FULLERTON      CLEAR     77  56  48 W5        29.91R
*GETTY CENTER    N/A     66  61  82 E1          N/A
HAWTHORNE      CLEAR     70  64  81 SW6       29.92R
*LOS ALAMITOS  PTCLDY    73  59  61 W3        29.92R
*REDONDO BEACH   N/A     69  64  85 W2        29.91R
SANTA ANA      PTCLDY    75  65  70 S5        29.92R
STA MONICA APT CLEAR     69  62  78 SW5       29.92R
*UCLA            N/A    N/A N/A N/A CALM      29.90R

$$

CAZ547-548-048-310500-
LA COUNTY VALLEYS AND INLAND EMPIRE


CITY           SKY/WX    TMP DP  RH WIND       PRES   REMARKS
BURBANK        PTCLDY    77  57  50 SE7       29.92R
VAN NUYS       PTCLDY    82  56  40 E3        29.91R

CITY           SKY/WX    TMP DP  RH WIND       PRES   REMARKS
CORONA AIRPORT CLEAR     80  59  48 NW8       29.93R
*CHATSWORTH      N/A     81  59  46 CALM      29.86R
CHINO          CLEAR     79  59  50 W9        29.93R
*CLAREMONT       N/A     78  52  39 W2          N/A
MARCH AFB      CLEAR     83  56  39 NW7       29.96R
*NORTHRIDGE      N/A     82  54  36 SE2         N/A
ONTARIO        PTCLDY    82  58  43 W10       29.93R
*PASADENA        N/A    N/A N/A N/A CALM        N/A
RIVERSIDE      CLEAR     83  58  42 W6        29.93R
SAN BERNARDINO NOT AVBL
*WHITEMAN AP   NOT AVBL
*WOODLAND HILL   N/A     82  54  36 SW2         N/A

$$

CAZ054-055-310500-
LA AND SAN BERNARDINO COUNTY MOUNTAINS


CITY           SKY/WX    TMP DP  RH WIND       PRES   REMARKS
*ACTON           N/A     87  47  24 CALM        N/A
*BIG BEAR AIRP CLEAR     64  43  45 CALM      30.36R
*BIG PINES       N/A     69  42  38 CALM        N/A
*CHILAO          N/A     75  48  37 NW3         N/A
MT WILSON NWS    N/A     73  43  33 E3          N/A
SANDBERG       CLOUDY    80  47  31 NW10      30.20R
*WARM SPRINGS    N/A     81  46  28 W8          N/A

$$

CAZ028-029-059-060-099-310500-
ANTELOPE VALLEY AND SURROUNDING AREAS


CITY           SKY/WX    TMP DP  RH WIND       PRES   REMARKS
LANCASTER      MOCLDY    88  47  24 W15       30.00R
PALMDALE       MOCLDY    88  49  25 W10       30.02R

CITY           SKY/WX    TMP DP  RH WIND       PRES   REMARKS
29 PALMS       PTCLDY    98  46  17 W24       29.97R HX  94
BARSTOW/DAGGET CLEAR     95  48  20 W6        29.92R HX  91
BISHOP         PTCLDY    68  57  68 CALM      30.20R
CHINA LAKE     MOCLDY    86  54  33 NW16      29.99R
EDWARDS AFB    MOCLDY    91  48  22 NW7       29.98R
MOJAVE         FAIR      88  46  23 NW16      30.03R
NEEDLES        CLEAR    104  58  21 SW6       29.77R HX 104
VICTORVILLE    CLEAR     90  46  22 W12       30.04R

$$

CAZ039-040-310500-
VENTURA AND SANTA BARBARA COUNTY COAST


CITY           SKY/WX    TMP DP  RH WIND       PRES   REMARKS
CAMARILLO      PTCLDY    70  61  73 W3        29.90S
NWS OXNARD       N/A     67  61  80 CALM      29.91R
OXNARD AIRPORT PTCLDY    65  61  87 NW7       29.90S
*POINT MUGU    PTCLDY    69  61  75 W6        29.91S
SBA APT/GOLETA PTCLDY    68  61  78 SE5       29.89R
*SANTA BARBARA   N/A     70  61  72 CALM      29.97S
*VENTURA         N/A     70  60  71 CALM      29.93S

$$

CAZ044-045-310500-
VENTURA COUNTY VALLEYS


CITY           SKY/WX    TMP DP  RH WIND       PRES   REMARKS
*SIMI VALLEY     N/A     75  59  57 CALM      29.86S
*FILLMORE        N/A     75  62  64 CALM      29.81S

$$

CAZ053-310500-
VENTURA COUNTY MOUNTAINS


CITY           SKY/WX    TMP DP  RH WIND       PRES   REMARKS
*LOCKWOOD VLY    N/A     75  46  35 MISG        N/A
*ROSE VALLEY     N/A     79  55  44 MISG        N/A

$$

CAZ034-035-036-310500-
CENTRAL COAST AND SANTA YNEZ VALLEY


CITY           SKY/WX    TMP DP  RH WIND       PRES   REMARKS
SAN LUIS OBISP MOCLDY    62  59  90 NW9       29.98R
SANTA MARIA    CLOUDY    63  59  88 W3        29.99R

CITY           SKY/WX    TMP DP  RH WIND       PRES   REMARKS
*CAL POLY SLO    N/A     66  61  82 W3G9        N/A
*LOMPOC          N/A     63  55  77 MISG      29.99R
*PISMO BEACH     N/A     64  60  85 S2        29.98R

$$

CAZ037-038-051-310500-
SAN LUIS OBISPO COUNTY INTERIOR AND CUYAMA VALLEY


CITY           SKY/WX    TMP DP  RH WIND       PRES   REMARKS
*CUYAMA          N/A     84  45  25 W8        29.87S
PASO ROBLES    CLOUDY    85  43  22 NW15      29.94R

$$

CAZ032-033-061-310500-
SOUTHERN DESERTS


CITY           SKY/WX    TMP DP  RH WIND       PRES   REMARKS
BLYTHE           N/A    N/A N/A N/A MISG      29.74R
IMPERIAL       PTCLDY   104  51  17 SW9       29.73R HX 101
PALM SPRINGS   CLEAR    104  46  14 NW16G23   29.78R HX 100
THERMAL        CLEAR    104  48  15 NW14      29.70R HX 100

$$

ELSEWHERE ACROSS THE WESTERN UNITED STATES AND MEXICO


CITY           SKY/WX    TMP DP  RH WIND       PRES   REMARKS
DENVER, CO     CLOUDY    59  56  89 SW9       30.35R
GRAND CANYON,  PTCLDY    66  48  52 CALM      30.29R
HONOLULU, HI   MOSUNNY   82  64  54 NE12      29.98R
KAHULUI, MAUI  MOSUNNY   82  66  57 NE23G30   29.96R
LAKE TAHOE, CA MOCLDY    66  50  56 S3        30.33F
LAS VEGAS, NV  MOCLDY    97  48  18 NW22G30   29.87S HX  93
MAMMOTH LAKES, FAIR      57  52  82 N3        30.41S
MEXICO CITY, M MOCLDY    64  52  63 NW9       30.38R
PHOENIX, AZ    MOCLDY   104  50  16 SW5       29.79R HX 101
PORTLAND, OR   PTCLDY    79  59  50 NW14      30.01S
RENO, NV       MOCLDY    77  48  35 W3        30.21R
SALT LAKE CITY PTCLDY    74  52  46 E8        30.17R
SAN DIEGO, CA  PTCLDY    73  67  81 NW5       29.94R
SAN FRANCISCO, PTCLDY    60  57  89 W18       29.96R
SAN JOSE, CA   PTCLDY    68  61  78 NW9       29.96R
SEATTLE, WA    PTCLDY    77  49  37 NE10      30.10R
TIJUANA, MEX   PTCLDY    70  63  78 W7        29.95S

$$

STATION/POSITION TIME  TEMP    WIND        PRES    VSBY  WAVE
                       AIR SEA DIR/SP/G                  HT/PER
                 (UTC) (F)     (DEG/KT/KT) (MB)    (MI)  (FT/S)
POINT ARGUELLO B NOT AVBL
WEST SANTA BARBA 0400   61 59  300/ 21/ 25 1013.2R         5/ 8
POINT CONCEPTION NOT AVBL
EAST SANTA BARBA 0400   64 65  280/ 14/ 17 1012.5
SANTA MONICA BAY 0400   66 67  340/ 10/ 12 1012.5R         4/ 6



USA.gov is the U.S. government's official web portal to all federal, state and local government web resources and services.